Flag for Poland Weather past 2 weeks in Rzeszów, Poland

Now
46 °F

Passing clouds.


Feels Like: 41 °F
Forecast: 42 / 47 °F
Wind: 12 mph from Northwest

Location: Rzeszow-Jasionka

Current Time: Mar 27, 2015 at 10:21:14 PM

Latest Report: Mar 27, 2015 at 10:00 PM


Visibility: N/A

Pressure: 29.92 "Hg

Humidity: 82%

Dew point: 41 °F

Location of RzeszówLocation

Historic Weather in Rzeszów — Graph

°F

Rzeszów temperature yesterday

Maximum temperature yesterday: 68 °F (at 3:00 PM)
Minimum temperature yesterday: 45 °F (at 4:30 AM)
Average temperature yesterday: 55 °F

Past Weeks' High & Low Weather Summary

 TemperatureHumidityPressure
High68 °F (Mar 26, 3:00 PM)100% (Mar 13, 6:30 AM)30.69 "Hg (Mar 13, 6:30 AM)
Low21 °F (Mar 23, 4:30 AM)32% (Mar 17, 1:30 PM)29.74 "Hg (Mar 27, 2:30 AM)
Average42 °F71%30.20 "Hg
* Reported Mar 12 9:00 PM — Mar 27 9:00 PM, Rzeszów, Weather by CustomWeather, © 2015

Note: Actual official high and low records may vary slightly from our data, if they occured in-between our weather recording intervals... More about our weather records

Advertising

Rzeszów weather history for previous 24 hours

 ConditionsComfort  
Time TempWeatherWind HumidityBarometerVisibility
9:00 PM
Fri, Mar 27
46 °FOvercast.12 mph82%29.92 "HgN/A
8:30 PM48 °FPassing clouds.16 mph82%29.89 "HgN/A
8:00 PM48 °FPassing clouds.15 mph87%29.89 "HgN/A
7:30 PM48 °FPassing clouds.16 mph87%29.86 "HgN/A
7:00 PM48 °FPassing clouds.16 mph87%29.86 "HgN/A
6:30 PM50 °FPassing clouds.17 mph82%29.83 "HgN/A
6:00 PM50 °FPassing clouds.17 mph82%29.83 "HgN/A
5:30 PM52 °FSprinkles. Scattered clouds.20 mph82%29.80 "Hg4 mi
5:00 PM54 °FScattered clouds.16 mph82%29.80 "HgN/A
4:30 PM55 °FSprinkles. Scattered clouds.17 mph77%29.77 "HgN/A
4:00 PM59 °FSprinkles. Scattered clouds.16 mph77%29.77 "Hg5 mi
3:30 PM61 °FSprinkles. Passing clouds.13 mph63%29.77 "HgN/A
3:00 PM64 °FPassing clouds.5 mph52%29.74 "HgN/A
2:30 PM66 °FPassing clouds.8 mph46%29.74 "HgN/A
2:00 PM66 °FPassing clouds.9 mph46%29.74 "HgN/A
1:30 PM68 °FPassing clouds.7 mph46%29.74 "HgN/A
1:00 PM66 °FPassing clouds.3 mph46%29.74 "HgN/A
12:30 PM66 °FPassing clouds.7 mph49%29.74 "HgN/A
12:00 PM66 °FPassing clouds.7 mph46%29.77 "HgN/A
11:30 AM66 °FPassing clouds.6 mph46%29.77 "HgN/A
11:00 AM64 °FPassing clouds.6 mph49%29.77 "HgN/A
10:30 AM63 °FSunny.8 mph56%29.77 "Hg10 mi
10:00 AM63 °FSunny.7 mph52%29.77 "Hg10 mi
9:30 AM63 °FSunny.7 mph56%29.77 "Hg10 mi
9:00 AM59 °FSunny.7 mph59%29.77 "Hg10 mi
8:30 AM57 °FSunny.6 mph63%29.77 "Hg10 mi
8:00 AM54 °FSunny.6 mph72%29.74 "Hg10 mi
7:30 AM50 °FSunny.7 mph76%29.77 "Hg10 mi
7:00 AM48 °FSunny.7 mph82%29.77 "Hg10 mi
6:30 AM46 °FSunny.5 mph87%29.74 "Hg10 mi
6:00 AM45 °FSunny.5 mph93%29.74 "Hg10 mi
5:30 AM45 °FSunny.6 mph87%29.74 "Hg10 mi
5:00 AM45 °FClear.6 mph87%29.74 "Hg10 mi
3:30 AM46 °FClear.7 mph87%29.74 "Hg10 mi
3:00 AM46 °FClear.8 mph82%29.74 "Hg10 mi
2:30 AM48 °FClear.7 mph76%29.74 "Hg10 mi
2:00 AM48 °FClear.7 mph76%29.77 "Hg10 mi
1:30 AM50 °FClear.3 mph71%29.77 "Hg10 mi
1:00 AM50 °FClear.2 mph71%29.77 "Hg10 mi
12:30 AM48 °FClear.2 mph76%29.80 "Hg10 mi
12:00 AM48 °FClear.2 mph76%29.80 "Hg10 mi
11:30 PM
Thu, Mar 26
50 °FClear.1 mph71%29.77 "Hg10 mi
11:00 PM54 °FClear.5 mph63%29.80 "Hg10 mi
10:30 PM54 °FClear.3 mph63%29.80 "Hg10 mi
10:00 PM54 °FClear.3 mph63%29.80 "Hg10 mi
Weather by CustomWeather, © 2015

See weather overviewHow to use our weather pages